Location: B�rgermoos
(47.6500°N, 9.0667°E)
Time: 08:40:18
(UTC+00:00)

Transit 2A Rocket - Visible Passes

Search period start: 31 July 2021 00:00
Search period end: 10 August 2021 00:00
Orbit: 589 x 913 km, 66.7° (Epoch: 30 July)

Date Brightness Start Highest point End Pass type
(mag) Time Alt. Az. Time Alt. Az. Time Alt. Az.
31 Jul 7.3 19:49:35 10° N 19:52:54 16° NNE 19:56:22 10° ENE visible
31 Jul 5.6 21:31:18 10° NNW 21:36:38 54° NE 21:39:25 29° ESE visible
31 Jul 6.2 23:14:12 10° NW 23:19:05 32° WSW 23:19:18 31° WSW visible
01 Aug 6.2 20:48:48 10° NNW 20:53:49 37° NE 20:57:42 17° ESE visible
01 Aug 5.6 22:31:15 10° NW 22:36:36 50° WSW 22:37:34 45° SSW visible
02 Aug 6.6 20:06:22 10° NNW 20:10:53 26° NE 20:15:41 10° E visible
02 Aug 5.2 21:48:30 10° NW 21:54:01 78° WSW 21:55:53 45° SSE visible
02 Aug 7.2 23:32:58 10° WNW 23:35:46 14° WSW 23:35:46 14° WSW visible
03 Aug 7.0 19:23:58 10° NNW 19:27:50 20° NNE 19:31:56 10° ENE visible
03 Aug 5.3 21:05:52 10° NNW 21:11:21 70° NE 21:14:15 31° SE visible
03 Aug 6.6 22:49:11 10° WNW 22:53:35 24° WSW 22:54:08 23° WSW visible
04 Aug 5.8 20:23:19 10° NNW 20:28:35 47° NE 20:32:40 18° ESE visible
04 Aug 6.1 22:06:03 10° NW 22:11:09 37° WSW 22:12:33 33° SW visible
05 Aug 6.3 19:40:50 10° NNW 19:45:43 33° NE 19:50:57 10° ESE visible
05 Aug 5.5 21:23:10 10° NW 21:28:38 59° WSW 21:31:00 35° S visible
06 Aug 5.2 20:40:27 10° NW 20:46:02 90° WSW 20:49:30 26° SSE visible
06 Aug 7.1 22:24:23 10° WNW 22:28:02 17° WSW 22:29:23 16° WSW visible
07 Aug 5.4 19:57:50 10° NNW 20:03:19 61° NE 20:08:02 16° SE visible
07 Aug 6.6 21:40:56 10° NW 21:45:40 28° WSW 21:47:56 22° SW visible
08 Aug 5.9 19:15:19 10° NNW 19:20:31 41° NE 19:26:04 10° ESE visible
08 Aug 6.0 20:57:53 10° NW 21:03:13 44° WSW 21:06:32 23° S visible
09 Aug 5.4 20:15:05 10° NW 20:20:40 69° WSW 20:25:11 18° SSE visible
09 Aug 7.5 22:00:07 10° W 22:02:25 12° WSW 22:04:46 10° SW visible
